FW1542 Weather Reports


time (UTC)temp
C
wind
direction
speed
KPH
gust
KPH
rain 1hr
cm
rain 24hr
cm
rain mn
cm
humidity
%
barometer
mb
20260508010057 20 90 6.4 22.5 0.00 0.00 0.00 68 1012.2
20260508010030 20 65 4.8 17.7 0.00 0.00 0.00 69 1015.4
20260508004556 20 87 9.7 24.1 0.00 0.00 0.00 67 1011.6
20260508004521 20 82 9.7 24.1 0.00 0.00 0.00 68 1014.5
20260508003045 20 113 8.0 24.1 0.00 0.00 0.00 67 1011.6
20260508003025 20 90 8.0 24.1 0.00 0.00 0.00 68 1014.5
20260508001544 20 67 4.8 17.7 0.00 0.00 0.00 67 1011.9
20260508001518 20 81 4.8 17.7 0.00 0.00 0.00 68 1015.0
20260508000045 20 69 9.7 20.9 0.00 0.00 0.00 66 1012.3
20260508000017 20 99 9.7 20.9 0.00 0.00 0.00 67 1015.5
20260507234546 20 69 8.0 14.5 0.00 0.00 0.00 65 1013.4
20260507234520 20 48 8.0 14.5 0.00 0.00 0.00 66 1016.3
20260507233046 20 19 4.8 20.9 0.00 0.00 0.00 65 1014.0
20260507233016 20 51 4.8 20.9 0.00 0.00 0.00 66 1017.0
20260507231550 21 113 4.8 16.1 0.00 0.00 0.00 66 1013.9
20260507231541 21 94 4.8 16.1 0.00 0.00 0.00 66 1016.9
20260507230043 21 352 8.0 17.7 0.00 0.00 0.00 66 1014.1
20260507230016 21 10 9.7 17.7 0.00 0.00 0.00 66 1017.2
20260507224556 21 40 4.8 17.7 0.00 0.00 0.00 66 1014.2
20260507224517 21 60 6.4 16.1 0.00 0.00 0.00 66 1017.2
20260507223041 21 60 9.7 20.9 0.00 0.00 0.00 65 1014.5
20260507223014 21 44 9.7 20.9 0.00 0.00 0.00 65 1017.4
20260507221545 21 19 8.0 19.3 0.00 0.00 0.00 65 1014.9
20260507221515 21 51 8.0 19.3 0.00 0.00 0.00 66 1017.9
20260507220046 21 47 9.7 24.1 0.00 0.00 0.00 67 1014.6
20260507220012 21 34 9.7 24.1 0.00 0.00 0.00 67 1017.4
20260507214543 20 49 8.0 17.7 0.00 0.00 0.00 69 1014.6
20260507214511 20 27 8.0 17.7 0.00 0.00 0.00 70 1017.5
20260507213057 20 42 4.8 19.3 0.00 0.00 0.00 70 1014.8
20260507213008 20 355 4.8 14.5 0.00 0.00 0.00 71 1017.6
20260507211607 21 5 6.4 16.1 0.00 0.00 0.00 71 1018.1
20260507211543 21 9 6.4 17.7 0.00 0.00 0.00 70 1015.1
20260507210048 21 23 8.0 17.7 0.00 0.00 0.00 70 1015.1
20260507210005 21 59 9.7 17.7 0.00 0.00 0.00 70 1018.2
20260507204553 21 26 9.7 25.7 0.00 0.00 0.00 70 1015.4
20260507204504 21 63 8.0 25.7 0.00 0.00 0.00 71 1018.4
20260507203044 21 34 11.3 22.5 0.00 0.00 0.00 71 1014.6
20260507203003 21 58 12.9 22.5 0.00 0.00 0.00 72 1017.5
20260507201544 21 16 8.0 27.4 0.00 0.00 0.00 73 1015.2
20260507201503 21 355 9.7 27.4 0.00 0.00 0.00 73 1018.1
20260507200057 20 5 4.8 19.3 0.00 0.00 0.00 77 1017.8
20260507200042 20 24 6.4 19.3 0.00 0.00 0.00 77 1014.9
20260507194555 19 36 11.3 22.5 0.00 0.00 0.00 76 1018.2
20260507194542 19 25 11.3 22.5 0.00 0.00 0.00 76 1015.3
20260507193107 19 67 6.4 20.9 0.00 0.00 0.00 77 1018.1
20260507193046 19 352 9.7 22.5 0.00 0.00 0.00 76 1015.2
20260507191553 19 339 6.4 20.9 0.00 0.00 0.00 77 1018.9
20260507191541 19 339 8.0 20.9 0.00 0.00 0.00 76 1016.0
20260507190100 18 5 8.0 22.5 0.00 0.00 0.00 78 1018.4
20260507190044 18 352 9.7 22.5 0.00 0.00 0.00 77 1015.5
20260507184549 18 49 11.3 25.7 0.00 0.00 0.00 78 1017.9
20260507184541 18 65 9.7 25.7 0.00 0.00 0.00 78 1015.1
20260507183050 18 65 8.0 20.9 0.00 0.00 0.00 78 1018.6
20260507183047 18 66 6.4 17.7 0.00 0.00 0.00 78 1015.7
20260507181548 17 34 6.4 14.5 0.00 0.00 0.00 79 1016.1
20260507180051 17 55 8.0 19.3 0.00 0.00 0.00 79 1019.5
20260507174546 17 94 8.0 20.9 0.00 0.00 0.00 78 1019.6
20260507174544 17 348 9.7 20.9 0.00 0.00 0.00 78 1016.8
20260507173052 18 94 11.3 20.9 0.00 0.00 0.00 78 1019.6
20260507173042 18 67 11.3 20.9 0.00 0.00 0.00 78 1016.9
20260507171551 18 62 8.0 20.9 0.00 0.00 0.00 78 1016.9
20260507171544 18 57 6.4 20.9 0.00 0.00 0.00 79 1019.6
20260507170049 17 61 9.7 25.7 0.00 0.00 0.00 80 1016.8
20260507170043 17 33 9.7 25.7 0.00 0.00 0.00 81 1019.4
20260507164552 17 18 11.3 25.7 0.00 0.00 0.00 81 1017.0
20260507164542 17 338 11.3 25.7 0.00 0.00 0.00 82 1019.6
20260507163045 16 37 8.0 22.5 0.00 0.00 0.00 82 1017.0
20260507163042 16 61 8.0 22.5 0.00 0.00 0.00 82 1019.6
20260507161543 16 9 11.3 25.7 0.00 0.00 0.00 82 1017.1
20260507160058 16 19 12.9 27.4 0.00 0.00 0.00 82 1017.0
20260507160039 16 53 14.5 30.6 0.00 0.00 0.00 83 1019.6
20260507154547 16 82 16.1 27.4 0.00 0.00 0.00 83 1016.6
20260507154541 16 59 17.7 27.4 0.00 0.00 0.00 84 1019.4
20260507153054 16 67 11.3 27.4 0.00 0.00 0.00 84 1016.6
20260507153045 16 47 11.3 27.4 0.00 0.00 0.00 84 1019.3
20260507151545 16 51 6.4 25.7 0.00 0.00 0.00 84 1016.8
20260507151532 16 46 6.4 25.7 0.00 0.00 0.00 85 1019.4
20260507150045 16 35 9.7 29.0 0.00 0.00 0.00 84 1016.4
20260507150029 16 24 11.3 29.0 0.00 0.00 0.00 85 1019.1
20260507144548 16 18 12.9 32.2 0.00 0.00 0.00 85 1016.1
20260507144526 16 9 11.3 32.2 0.00 0.00 0.00 85 1018.8
20260507143047 16 340 9.7 27.4 0.00 0.00 0.00 85 1015.8
20260507143025 16 15 12.9 27.4 0.00 0.00 0.00 86 1018.6
20260507141552 16 45 9.7 22.5 0.00 0.00 0.00 86 1015.8
20260507141522 16 15 9.7 22.5 0.00 0.00 0.00 86 1018.4
20260507140106 16 36 6.4 33.8 0.00 0.00 0.00 86 1016.4
20260507140021 16 5 8.0 22.5 0.00 0.00 0.00 86 1019.2
20260507134545 16 5 11.3 27.4 0.00 0.00 0.00 85 1015.9
20260507134521 16 19 14.5 27.4 0.00 0.00 0.00 86 1018.6
20260507133044 16 82 8.0 25.7 0.00 0.00 0.00 85 1015.8
20260507133018 16 40 6.4 25.7 0.00 0.00 0.00 85 1018.6
20260507131545 16 51 14.5 32.2 0.00 0.00 0.00 84 1016.2
20260507131514 16 333 12.9 29.0 0.00 0.00 0.00 84 1018.9
20260507130051 16 329 14.5 33.8 0.00 0.00 0.00 83 1015.8
20260507130011 16 27 14.5 33.8 0.00 0.00 0.00 84 1018.4
20260507124549 16 46 14.5 29.0 0.00 0.00 0.00 82 1015.6
20260507124510 16 54 14.5 30.6 0.00 0.00 0.00 83 1018.2
20260507123056 17 327 6.4 22.5 0.00 0.00 0.00 82 1015.8
20260507123006 17 32 4.8 22.5 0.00 0.00 0.00 82 1018.5
20260507121547 17 84 6.4 17.7 0.00 0.00 0.00 82 1015.6
20260507121504 17 62 6.4 17.7 0.00 0.00 0.00 82 1018.1
20260507120046 17 40 8.0 24.1 0.00 0.00 0.00 82 1015.3
20260507120001 17 46 8.0 24.1 0.00 0.00 0.00 82 1017.8
20260507114606 17 29 4.8 16.1 0.00 0.00 0.00 82 1017.6
20260507114550 17 346 6.4 16.1 0.00 0.00 0.00 82 1015.0
20260507113056 17 57 8.0 27.4 0.00 0.00 0.00 82 1017.3
20260507113047 17 27 6.4 27.4 0.00 0.00 0.00 81 1014.6
20260507111553 17 333 6.4 24.1 0.00 0.00 0.00 82 1016.7
20260507111547 17 47 9.7 24.1 0.00 0.00 0.00 81 1014.0
20260507110052 17 26 9.7 20.9 0.00 0.00 0.00 82 1016.6
20260507110046 17 32 9.7 20.9 0.00 0.00 0.00 81 1013.9
20260507104551 17 42 6.4 22.5 0.00 0.00 0.00 81 1016.5
20260507104544 17 13 8.0 25.7 0.00 0.00 0.00 81 1013.8
20260507103050 17 26 4.8 22.5 0.00 0.00 0.00 82 1016.7
20260507103043 17 36 6.4 22.5 0.00 0.00 0.00 81 1014.0
20260507101548 17 55 8.0 22.5 0.00 0.00 0.00 82 1016.7
20260507101546 17 5 4.8 22.5 0.00 0.00 0.00 82 1014.0
20260507100045 17 46 8.0 17.7 0.00 0.00 0.00 82 1016.6
20260507100041 17 348 9.7 17.7 0.00 0.00 0.00 81 1013.7
20260507094547 17 29 4.8 16.1 0.00 0.00 0.00 81 1013.9
20260507094544 17 29 3.2 16.1 0.00 0.00 0.00 82 1016.6
20260507093049 17 19 8.0 19.3 0.00 0.00 0.00 81 1014.1
20260507093043 17 56 8.0 19.3 0.00 0.00 0.00 82 1016.8
20260507091548 17 52 3.2 17.7 0.00 0.00 0.00 81 1013.9
20260507091541 17 49 1.6 17.7 0.00 0.00 0.00 82 1016.6
20260507090047 17 38 6.4 19.3 0.00 0.00 0.00 81 1014.0
20260507090042 17 66 6.4 19.3 0.00 0.00 0.00 82 1016.7
20260507084544 17 38 6.4 22.5 0.00 0.00 0.00 82 1014.0
20260507084539 17 355 9.7 22.5 0.00 0.00 0.00 82 1016.7
20260507083049 17 360 4.8 17.7 0.00 0.00 0.00 81 1014.0
20260507083046 17 19 4.8 17.7 0.00 0.00 0.00 82 1016.6
20260507081542 17 14 3.2 14.5 0.00 0.00 0.00 81 1014.1
20260507081536 17 13 4.8 14.5 0.00 0.00 0.00 82 1016.7
20260507080116 17 5 6.4 16.1 0.00 0.00 0.00 82 1014.0
20260507080040 17 355 8.0 16.1 0.00 0.00 0.00 82 1016.7
20260507074546 17 17 4.8 16.1 0.00 0.00 0.00 82 1013.9
20260507074543 17 350 4.8 16.1 0.00 0.00 0.00 82 1016.6
20260507073050 17 328 4.8 16.1 0.00 0.00 0.00 82 1014.3
20260507073035 17 337 4.8 16.1 0.00 0.00 0.00 82 1016.9
20260507071559 17 15 6.4 19.3 0.00 0.00 0.00 82 1014.4
20260507071552 17 15 6.4 12.9 0.00 0.00 0.00 82 1017.0
20260507070051 17 71 8.0 19.3 0.00 0.00 0.00 82 1014.4
20260507070035 17 67 9.7 19.3 0.00 0.00 0.00 82 1017.1
20260507064554 17 39 9.7 24.1 0.00 0.00 0.00 82 1014.3
20260507064531 17 39 9.7 24.1 0.00 0.00 0.00 82 1016.8
20260507063054 17 25 6.4 20.9 0.00 0.00 0.00 82 1014.3
20260507063032 17 17 6.4 19.3 0.00 0.00 0.00 82 1016.8
20260507061551 18 34 9.7 20.9 0.00 0.00 0.00 82 1014.2
20260507061527 18 52 9.7 20.9 0.00 0.00 0.00 83 1016.8
20260507060047 18 69 8.0 17.7 0.00 0.00 0.00 82 1013.9
20260507060024 18 94 6.4 17.7 0.00 0.00 0.00 83 1016.4
20260507054551 18 32 6.4 17.7 0.00 0.00 0.00 82 1013.7
20260507054522 18 50 6.4 17.7 0.00 0.00 0.00 83 1016.3
20260507053047 18 40 4.8 20.9 0.00 0.00 0.00 82 1013.6
20260507053020 18 55 4.8 20.9 0.00 0.00 0.00 82 1016.1
20260507051544 18 40 9.7 25.7 0.00 0.00 0.00 81 1013.0
20260507051517 18 30 8.0 25.7 0.00 0.00 0.00 82 1015.4
20260507050047 18 51 6.4 24.1 0.00 0.00 0.00 81 1013.3
20260507050014 18 51 6.4 24.1 0.00 0.00 0.00 82 1015.7
20260507044546 18 35 6.4 20.9 0.00 0.00 0.00 81 1013.1
20260507044511 18 5 8.0 17.7 0.00 0.00 0.00 82 1015.6
20260507043047 18 61 6.4 20.9 0.00 0.00 0.00 82 1013.6
20260507043011 18 26 4.8 20.9 0.00 0.00 0.00 82 1016.0
20260507041547 18 348 9.7 22.5 0.00 0.00 0.00 81 1013.5
20260507041508 18 10 9.7 17.7 0.00 0.00 0.00 82 1015.8
20260507040057 18 26 6.4 20.9 0.00 0.00 0.00 81 1012.9
20260507040005 18 52 8.0 19.3 0.00 0.00 0.00 82 1015.4
20260507034552 18 38 8.0 22.5 0.00 0.00 0.00 81 1012.5
20260507034502 18 15 8.0 19.3 0.00 0.00 0.00 82 1014.8
20260507033100 18 28 6.4 17.7 0.00 0.00 0.00 82 1014.8
20260507033048 18 26 4.8 16.1 0.00 0.00 0.00 81 1012.4
20260507031605 18 5 8.0 20.9 0.00 0.00 0.00 81 1014.5
20260507031545 18 338 9.7 20.9 0.00 0.00 0.00 81 1012.5
20260507030057 18 48 6.4 20.9 0.00 0.00 0.00 81 1014.6
20260507030052 18 40 6.4 22.5 0.00 0.00 0.00 80 1012.4
20260507024553 19 349 11.3 25.7 0.00 0.00 0.00 81 1014.4
20260507024542 19 360 9.7 25.7 0.00 0.00 0.00 80 1012.3
20260507023049 19 336 8.0 25.7 0.00 0.00 0.00 80 1014.3
20260507023040 19 352 9.7 25.7 0.00 0.00 0.00 79 1012.3
20260507021547 20 5 8.0 25.7 0.00 0.00 0.00 79 1014.2
20260507021545 20 351 12.9 25.7 0.00 0.00 0.00 79 1012.0
20260507020047 20 334 11.3 17.7 0.00 0.00 0.00 79 1013.9
20260507014542 20 5 8.0 22.5 0.00 0.00 0.00 77 1011.5
20260507014540 20 33 9.7 22.5 0.00 0.00 0.00 78 1013.5
20260507013043 21 55 6.4 25.7 0.00 0.00 0.00 77 1010.9
20260507013039 21 46 6.4 25.7 0.00 0.00 0.00 77 1013.0
20260507011553 21 344 8.0 19.3 0.00 0.00 0.00 76 1010.7
20260507011538 21 338 8.0 17.7 0.00 0.00 0.00 76 1013.0